TimeCDT,TemperatureF,Dew PointF,Humidity,Sea Level PressureIn,VisibilityMPH,Wind Direction,Wind SpeedMPH,Gust SpeedMPH,PrecipitationIn,Events,Conditions,WindDirDegrees,DateUTC
12:15 AM,53.6,44.6,72,30.20,10.0,SE,8.1,-,N/A,,Scattered Clouds,140,2013-05-25 05:15:00
12:34 AM,53.6,44.6,72,30.20,10.0,South,8.1,-,N/A,,Drizzle,170,2013-05-25 05:34:00
12:54 AM,55.4,44.6,67,30.20,10.0,South,9.2,-,N/A,,Mostly Cloudy,170,2013-05-25 05:54:00
1:15 AM,53.6,44.6,72,30.20,10.0,SSE,10.4,-,N/A,,Drizzle,160,2013-05-25 06:15:00
1:34 AM,53.6,44.6,72,30.20,10.0,SSE,9.2,-,N/A,,Overcast,160,2013-05-25 06:34:00
1:54 AM,53.6,44.6,72,30.20,10.0,SE,5.8,-,N/A,Rain,Light Rain,140,2013-05-25 06:54:00
2:15 AM,53.6,44.6,72,30.19,10.0,ESE,3.5,-,N/A,Rain,Light Rain,110,2013-05-25 07:15:00
2:34 AM,53.6,44.6,72,30.20,10.0,Calm,Calm,-,N/A,,Overcast,0,2013-05-25 07:34:00
2:54 AM,53.6,46.4,77,30.20,10.0,East,4.6,-,N/A,,Overcast,90,2013-05-25 07:54:00
3:15 AM,53.6,44.6,72,30.20,10.0,ESE,4.6,-,N/A,,Overcast,110,2013-05-25 08:15:00
3:34 AM,53.6,44.6,72,30.19,10.0,ESE,5.8,-,N/A,,Overcast,110,2013-05-25 08:34:00
3:55 AM,53.6,44.6,72,30.19,10.0,ESE,5.8,-,N/A,,Overcast,110,2013-05-25 08:55:00
4:14 AM,53.6,44.6,72,30.19,10.0,ESE,5.8,-,N/A,,Overcast,110,2013-05-25 09:14:00
4:34 AM,53.6,44.6,72,30.19,10.0,ESE,4.6,-,N/A,,Overcast,120,2013-05-25 09:34:00
4:54 AM,53.6,44.6,72,30.19,10.0,ESE,6.9,-,N/A,,Overcast,120,2013-05-25 09:54:00
5:14 AM,53.6,44.6,72,30.20,10.0,ESE,6.9,-,N/A,,Overcast,110,2013-05-25 10:14:00
5:35 AM,51.8,44.6,76,30.20,10.0,East,8.1,-,N/A,,Overcast,100,2013-05-25 10:35:00
5:54 AM,51.8,44.6,76,30.21,10.0,East,6.9,-,N/A,Rain,Light Rain,100,2013-05-25 10:54:00
6:14 AM,51.8,46.4,82,30.21,7.0,ESE,5.8,-,N/A,,Overcast,110,2013-05-25 11:14:00
6:35 AM,51.8,46.4,82,30.22,3.0,East,6.9,-,N/A,Rain,Rain,100,2013-05-25 11:35:00
6:54 AM,50.0,44.6,82,30.22,3.0,East,10.4,-,0.02,,Drizzle,90,2013-05-25 11:54:00
7:14 AM,48.2,44.6,87,30.23,2.0,East,10.4,-,0.02,Rain,Light Rain,100,2013-05-25 12:14:00
7:35 AM,50.0,44.6,82,30.23,2.5,East,11.5,-,0.03,,Light Drizzle,100,2013-05-25 12:35:00
7:54 AM,50.0,44.6,82,30.23,2.5,East,10.4,17.3,0.04,Rain,Light Rain,90,2013-05-25 12:54:00
8:14 AM,50.0,44.6,82,30.22,4.0,East,12.7,-,N/A,,Haze,100,2013-05-25 13:14:00
8:35 AM,51.8,46.4,82,30.21,4.0,East,13.8,-,N/A,,Haze,100,2013-05-25 13:35:00
8:54 AM,51.8,46.4,82,30.20,10.0,East,13.8,-,N/A,,Mostly Cloudy,100,2013-05-25 13:54:00
9:14 AM,51.8,46.4,82,30.20,10.0,ESE,12.7,-,N/A,,Mostly Cloudy,110,2013-05-25 14:14:00
9:35 AM,51.8,46.4,82,30.20,10.0,ESE,12.7,18.4,N/A,,Mostly Cloudy,110,2013-05-25 14:35:00
9:54 AM,51.8,46.4,82,30.19,10.0,East,15.0,-,N/A,,Mostly Cloudy,100,2013-05-25 14:54:00
10:14 AM,51.8,46.4,82,30.20,10.0,ESE,13.8,19.6,N/A,,Unknown,110,2013-05-25 15:14:00
10:34 AM,51.8,46.4,82,30.20,10.0,ESE,12.7,-,N/A,,Mostly Cloudy,120,2013-05-25 15:34:00
10:54 AM,51.8,46.4,82,30.21,10.0,ESE,10.4,-,N/A,,Mostly Cloudy,120,2013-05-25 15:54:00
11:14 AM,53.6,48.2,82,30.21,10.0,ESE,10.4,-,N/A,,Mostly Cloudy,110,2013-05-25 16:14:00
11:34 AM,53.6,48.2,82,30.21,10.0,ESE,10.4,-,N/A,,Scattered Clouds,110,2013-05-25 16:34:00
11:54 AM,53.6,48.2,82,30.21,10.0,ESE,11.5,-,N/A,,Scattered Clouds,120,2013-05-25 16:54:00
12:14 PM,55.4,50.0,82,30.20,10.0,SE,12.7,17.3,N/A,,Scattered Clouds,130,2013-05-25 17:14:00
12:34 PM,55.4,50.0,82,30.21,10.0,ESE,12.7,18.4,N/A,,Scattered Clouds,120,2013-05-25 17:34:00
12:54 PM,57.2,50.0,77,30.21,10.0,ESE,9.2,17.3,N/A,,Scattered Clouds,120,2013-05-25 17:54:00
1:14 PM,57.2,51.8,82,30.21,10.0,SE,12.7,16.1,N/A,,Scattered Clouds,130,2013-05-25 18:14:00
1:34 PM,60.8,51.8,72,30.21,10.0,SE,16.1,19.6,N/A,,Scattered Clouds,140,2013-05-25 18:34:00
1:54 PM,60.8,51.8,72,30.21,10.0,SE,13.8,-,N/A,,Scattered Clouds,140,2013-05-25 18:54:00
2:14 PM,60.8,51.8,72,30.21,10.0,SE,15.0,-,N/A,,Clear,130,2013-05-25 19:14:00
2:34 PM,62.6,51.8,68,30.20,10.0,SE,15.0,19.6,N/A,,Clear,140,2013-05-25 19:34:00
2:54 PM,62.6,51.8,68,30.20,10.0,ESE,12.7,18.4,N/A,,Clear,110,2013-05-25 19:54:00
3:14 PM,62.6,51.8,68,30.20,10.0,SE,16.1,21.9,N/A,,Clear,130,2013-05-25 20:14:00
3:34 PM,62.6,51.8,68,30.19,10.0,ESE,15.0,-,N/A,,Scattered Clouds,120,2013-05-25 20:34:00
3:54 PM,64.4,53.6,68,30.19,10.0,ESE,16.1,20.7,N/A,,Scattered Clouds,110,2013-05-25 20:54:00
4:14 PM,64.4,51.8,64,30.18,10.0,SE,15.0,-,N/A,,Clear,130,2013-05-25 21:14:00
4:34 PM,66.2,51.8,60,30.18,10.0,SE,12.7,17.3,N/A,,Clear,140,2013-05-25 21:34:00
4:54 PM,66.2,51.8,60,30.18,10.0,ESE,16.1,-,N/A,,Clear,120,2013-05-25 21:54:00
5:14 PM,66.2,51.8,60,30.18,10.0,SE,15.0,-,N/A,,Clear,130,2013-05-25 22:14:00
5:34 PM,66.2,51.8,60,30.18,10.0,ESE,12.7,-,N/A,,Scattered Clouds,120,2013-05-25 22:34:00
5:54 PM,66.2,50.0,56,30.17,10.0,ESE,10.4,16.1,N/A,,Scattered Clouds,120,2013-05-25 22:54:00
6:14 PM,66.2,51.8,60,30.17,10.0,SE,11.5,-,N/A,,Scattered Clouds,130,2013-05-25 23:14:00
6:34 PM,66.2,50.0,56,30.16,10.0,ESE,10.4,-,N/A,,Scattered Clouds,120,2013-05-25 23:34:00
6:54 PM,66.2,48.2,52,30.16,10.0,ESE,11.5,16.1,N/A,,Clear,120,2013-05-25 23:54:00
7:14 PM,66.2,48.2,52,30.17,10.0,SE,11.5,-,N/A,,Clear,130,2013-05-26 00:14:00
7:34 PM,66.2,48.2,52,30.17,10.0,SE,11.5,-,N/A,,Scattered Clouds,130,2013-05-26 00:34:00
7:54 PM,64.4,50.0,59,30.17,10.0,SE,10.4,-,N/A,,Scattered Clouds,130,2013-05-26 00:54:00
8:14 PM,64.4,48.2,56,30.17,10.0,ESE,10.4,-,N/A,,Scattered Clouds,120,2013-05-26 01:14:00
8:34 PM,64.4,48.2,56,30.17,10.0,ESE,9.2,-,N/A,,Scattered Clouds,110,2013-05-26 01:34:00
8:54 PM,64.4,48.2,56,30.17,10.0,ESE,8.1,-,N/A,,Scattered Clouds,110,2013-05-26 01:54:00
9:14 PM,62.6,48.2,59,30.18,10.0,ESE,8.1,-,N/A,,Mostly Cloudy,120,2013-05-26 02:14:00
9:34 PM,62.6,48.2,59,30.18,10.0,ESE,8.1,-,N/A,,Mostly Cloudy,120,2013-05-26 02:34:00
9:54 PM,62.6,48.2,59,30.18,10.0,ESE,8.1,-,N/A,,Scattered Clouds,110,2013-05-26 02:54:00
10:14 PM,60.8,48.2,63,30.18,10.0,ESE,8.1,-,N/A,,Scattered Clouds,110,2013-05-26 03:14:00
10:34 PM,60.8,48.2,63,30.18,10.0,ESE,8.1,-,N/A,,Clear,110,2013-05-26 03:34:00
10:54 PM,60.8,48.2,63,30.18,10.0,ESE,9.2,-,N/A,,Clear,120,2013-05-26 03:54:00
11:14 PM,59.0,48.2,67,30.18,10.0,SE,9.2,-,N/A,,Clear,130,2013-05-26 04:14:00
11:34 PM,57.2,48.2,72,30.18,10.0,SE,8.1,-,N/A,,Clear,140,2013-05-26 04:34:00
11:54 PM,57.2,46.4,67,30.18,10.0,SSE,10.4,-,N/A,,Clear,150,2013-05-26 04:54:00